DW5096 Weather Reports


Display with metric or nautical units.
time (UTC)temp
F
wind
direction
speed
MPH
gust
MPH
rain 1hr
in
rain 24hr
in
rain mn
in
humidity
%
barometer
mb
20260507082807 44 275 1.0 4.0 0.00 0.26 0.00 93 1004.7
20260507081306 44 275 0.0 2.0 0.00 0.26 0.00 93 1004.6
20260507075803 44 275 0.0 0.0 0.00 0.26 0.00 93 1004.4
20260507074303 44 275 0.0 0.0 0.00 0.26 0.00 93 1004.5
20260507072803 44 275 0.0 0.0 0.00 0.26 0.00 93 1004.5
20260507071301 44 275 0.0 0.0 0.00 0.26 0.00 93 1004.6
20260507065758 44 275 0.0 0.0 0.00 0.26 0.00 94 1004.7
20260507055750 43 275 1.0 3.0 0.00 0.26 0.00 94 1005.2
20260507054250 43 275 1.0 4.0 0.00 0.26 0.00 94 1005.3
20260507051250 43 275 0.0 2.0 0.00 0.26 0.00 93 1005.6
20260507045750 43 275 0.0 0.0 0.00 0.26 0.00 93 1005.8
20260507044252 43 275 0.0 1.0 0.00 0.26 0.00 93 1005.7
20260507042749 43 275 0.0 3.0 0.00 0.26 0.00 93 1005.6
20260507041248 44 275 1.0 6.0 0.00 0.26 0.00 93 1005.7
20260507035748 44 275 2.0 8.0 0.00 0.26 0.26 93 1005.8
20260507032747 44 275 1.0 6.0 0.00 0.26 0.26 93 1006.2
20260507031251 44 275 1.0 4.0 0.00 0.26 0.26 93 1006.4
20260507025748 44 275 0.0 7.0 0.00 0.26 0.26 93 1006.4
20260507024248 44 275 1.0 6.0 0.00 0.26 0.26 93 1006.4
20260507022747 44 275 1.0 6.0 0.00 0.26 0.26 92 1006.4
20260507021241 44 276 2.0 4.0 0.00 0.26 0.26 93 1006.4
20260507015742 44 275 1.0 4.0 0.00 0.26 0.26 93 1006.3
20260507014243 45 276 0.0 4.0 0.00 0.26 0.26 92 1006.3
20260507011241 45 276 0.0 3.0 0.00 0.28 0.26 92 1006.3
20260507005740 45 275 0.0 0.0 0.00 0.29 0.26 92 1006.5
20260507004238 45 276 0.0 0.0 0.00 0.31 0.26 92 1006.5
20260507002738 45 275 0.0 3.0 0.00 0.33 0.26 91 1006.4
20260507001239 46 276 0.0 2.0 0.00 0.33 0.26 91 1006.4
20260506234237 46 275 0.0 2.0 0.00 0.34 0.26 91 1006.4
20260506232735 47 275 0.0 2.0 0.00 0.34 0.26 91 1006.5
20260506231235 47 276 0.0 0.0 0.00 0.34 0.26 91 1006.2
20260506225732 46 275 0.0 2.0 0.00 0.34 0.26 92 1006.2
20260506224231 46 275 0.0 2.0 0.00 0.34 0.26 92 1006.4
20260506222730 46 275 0.0 2.0 0.00 0.34 0.26 92 1006.5
20260506221228 46 275 0.0 1.0 0.00 0.34 0.26 92 1006.6
20260506215726 46 275 0.0 0.0 0.00 0.34 0.26 92 1006.5
20260506214227 46 275 0.0 0.0 0.00 0.34 0.26 92 1006.6
20260506212726 46 275 0.0 2.0 0.00 0.34 0.26 91 1006.7
20260506211225 46 276 0.0 1.0 0.00 0.34 0.26 91 1006.7
20260506205726 47 275 0.0 0.0 0.00 0.34 0.26 92 1006.6
20260506202725 46 275 0.0 2.0 0.00 0.34 0.26 91 1006.8
20260506201223 46 276 1.0 3.0 0.00 0.34 0.26 90 1006.8
20260506195723 47 275 0.0 2.0 0.00 0.34 0.26 91 1006.8
20260506194215 47 275 0.0 0.0 0.01 0.34 0.26 92 1006.8
20260506192714 47 275 0.0 2.0 0.01 0.34 0.26 92 1006.9
20260506191213 47 275 0.0 2.0 0.01 0.34 0.26 92 1007.0
20260506185712 47 275 0.0 0.0 0.01 0.34 0.26 93 1007.0
20260506184216 47 276 0.0 0.0 0.01 0.33 0.25 94 1007.3
20260506182710 46 276 0.0 3.0 0.01 0.33 0.25 94 1007.3
20260506181212 46 276 0.0 4.0 0.02 0.33 0.25 94 1007.3
20260506175710 46 276 0.0 4.0 0.02 0.33 0.25 94 1007.4
20260506171208 45 276 1.0 3.0 0.03 0.35 0.24 93 1008.1
20260506165707 46 276 0.0 2.0 0.04 0.35 0.23 93 1008.1
20260506164206 45 275 0.0 3.0 0.04 0.35 0.22 93 1008.2
20260506162707 45 276 1.0 3.0 0.05 0.37 0.21 93 1008.4
20260506161206 45 275 0.0 3.0 0.06 0.39 0.20 93 1008.5
20260506154204 46 276 1.0 4.0 0.07 0.36 0.18 93 1008.6
20260506152701 46 274 0.0 3.0 0.06 0.35 0.17 93 1008.8
20260506151203 46 274 0.0 3.0 0.06 0.33 0.15 94 1009.0
20260506145702 46 274 0.0 4.0 0.05 0.31 0.13 94 1009.0
20260506144159 46 274 0.0 6.0 0.03 0.29 0.11 94 1008.8
20260506142658 46 271 1.0 7.0 0.03 0.28 0.10 94 1008.7
20260506141158 46 271 1.0 6.0 0.02 0.27 0.09 94 1008.8
20260506135650 46 271 0.0 4.0 0.02 0.26 0.08 94 1008.7
20260506134149 46 271 1.0 7.0 0.02 0.26 0.08 94 1008.5
20260506132651 46 273 1.0 7.0 0.02 0.25 0.07 94 1008.6
20260506131151 46 273 3.0 7.0 0.03 0.25 0.07 93 1008.7
20260506125649 46 272 1.0 6.0 0.03 0.24 0.06 93 1008.7
20260506124150 46 272 1.0 6.0 0.05 0.24 0.06 93 1008.6
20260506122644 46 273 1.0 4.0 0.05 0.23 0.05 92 1008.7
20260506121143 46 273 3.0 9.0 0.04 0.22 0.04 91 1008.5
20260506115643 47 282 4.0 13.0 0.03 0.21 0.03 91 1008.6
20260506114140 49 289 3.0 9.0 0.01 0.19 0.01 91 1008.6
20260506112642 49 255 1.0 8.0 0.00 0.18 0.00 91 1008.2
20260506111139 50 252 1.0 7.0 0.00 0.18 0.00 90 1008.0
20260506101136 50 252 1.0 9.0 0.00 0.18 0.00 89 1007.1
20260506095636 50 255 0.0 5.0 0.00 0.18 0.00 89 1006.8
20260506094134 50 257 1.0 3.0 0.00 0.18 0.00 88 1006.8
20260506092632 50 257 1.0 6.0 0.00 0.18 0.00 88 1007.0
20260506091132 51 256 2.0 11.0 0.00 0.18 0.00 88 1007.1